Theta_e
322 321 320 320 322 321 322 322 320 313 314 320 323 331 332 334 335 333 331 326 326 324 324 324 324 324 325 325 326 327 327 327 328 328 328 330 330 326
323 322 320 321 321 323 322 321 321 319 314 322 323 327 332 333 334 332 331 326 323 322 323 322 320 321 322 322 322 323 324 325 325 326 327 326 324 322
323 324 323 323 322 322 322 321 321 321 317 321 325 326 323 323 326 327 328 325 323 321 322 320 318 318 319 319 319 321 322 322 322 322 322 321 320 319
324 324 324 324 323 323 322 321 321 322 320 319 320 318 319 321 321 321 322 324 322 321 319 317 316 315 315 315 316 316 315 316 317 317 317 317 317 316
324 324 324 323 322 322 322 321 322 323 324 319 315 317 318 319 318 319 318 318 320 320 317 316 315 314 313 313 312 311 310 309 309 311 313 314 314 313
325 325 325 323 322 322 322 321 322 321 319 316 314 314 315 317 317 315 315 317 316 319 317 316 316 314 312 312 312 311 307 306 305 306 306 306 306 308
325 325 325 323 321 321 322 321 322 319 317 315 313 312 312 312 312 314 313 315 315 316 315 315 315 314 313 313 315 312 307 305 304 304 303 302 302 302
322 322 322 318 316 312 314 315 319 319 316 314 313 312 312 313 314 313 312 311 309 317 311 308 312 308 312 315 308 305 304 304 303 303 301 300 300 299
322 321 319 318 318 317 310 311 310 311 314 317 314 314 314 315 314 313 313 313 310 312 312 304 307 306 306 307 303 302 302 301 301 300 300 299 298 297
322 320 319 318 318 320 320 319 320 319 319 320 318 318 318 318 317 316 314 313 310 309 313 304 303 303 303 306 302 301 300 299 299 299 299 298 296 296
322 321 321 319 303 306 319 317 316 314 308 305 305 303 302 304 311 315 313 311 309 308 307 307 303 302 302 303 304 301 299 298 298 298 298 297 296 295
320 318 308 313 300 305 319 317 315 315 316 316 313 309 310 308 308 317 317 312 310 309 310 308 303 302 302 302 302 304 303 299 298 297 297 297 296 299
318 316 313 299 299 301 309 320 315 317 312 316 315 315 315 318 318 318 320 315 312 313 311 308 304 302 304 302 301 302 302 301 301 299 296 296 295 297
318 317 306 297 297 299 309 299 302 311 317 315 315 314 315 316 317 317 318 318 317 317 311 312 306 306 305 302 302 301 301 301 300 300 300 297 295 295
320 306 296 295 296 299 297 299 305 317 318 316 316 315 317 317 317 317 317 317 316 316 310 312 309 307 308 308 307 302 300 301 301 300 300 298 297 298
305 307 303 303 302 304 309 315 319 318 318 317 315 315 317 317 317 318 316 316 315 315 313 313 312 311 308 309 309 307 303 304 301 301 300 300 298 298
311 316 318 316 315 316 318 319 318 318 316 315 315 316 317 317 318 320 319 316 315 314 314 310 308 312 311 312 308 309 309 306 306 303 299 298 299 299
317 317 317 317 316 316 317 317 318 315 317 317 317 317 316 316 318 319 319 319 318 317 316 311 307 307 307 308 308 311 310 309 309 304 301 299 300 301
319 318 317 318 317 317 318 318 318 319 319 318 317 316 317 318 314 319 319 318 317 318 317 310 307 309 310 311 309 296 308 309 307 303 303 301 300 300
320 318 318 319 319 320 320 319 319 319 320 319 318 318 318 318 317 318 319 319 319 318 316 311 306 307 311 313 313 305 289 304 303 304 301 293 291 289
318 318 320 319 320 321 320 319 320 320 320 320 320 320 319 319 319 319 319 304 309 319 317 317 316 296 309 303 304 305 297 290 298 303 296 293 293 296
318 319 319 320 320 320 319 318 318 317 319 320 321 321 321 321 320 319 319 318 316 319 319 321 309 305 303 304 309 311 302 295 294 295 295 296 296 296
318 319 320 319 320 321 321 320 320 320 321 321 321 321 322 320 322 322 321 321 321 320 319 319 309 303 305 305 305 311 301 296 295 294 295 292 292 293
Wind_Speed
5 5 5 3 4 4 2 2 3 3 1 1 1 1 2 3 5 5 7 13 18 20 25 23 21 21 17 15 15 13 12 13 13 12 13 11 14 14
3 6 5 3 4 3 4 3 1 3 3 1 1 1 3 3 6 6 8 16 24 24 25 29 19 16 17 19 16 11 12 13 12 10 12 14 14 14
4 5 5 5 3 4 4 3 3 2 5 2 1 5 4 8 6 7 8 11 15 29 25 24 20 18 17 13 13 12 13 13 13 12 14 14 14 14
6 5 4 4 4 4 3 5 5 3 5 7 2 3 4 8 9 12 10 10 13 24 24 24 20 17 16 13 13 12 12 12 13 13 13 14 14 13
5 5 4 6 5 5 5 5 5 5 7 7 5 3 4 8 12 12 15 15 12 25 21 21 20 15 12 12 13 13 12 12 12 12 12 12 12 12
3 5 5 8 7 7 7 8 8 9 9 9 9 7 6 6 11 13 13 13 12 10 12 10 13 13 10 10 12 12 11 12 12 11 11 12 11 11
2 3 6 8 9 7 7 8 11 10 10 9 9 9 8 8 12 9 14 12 9 7 8 6 6 5 5 7 9 12 11 12 12 11 11 11 11 11
5 7 6 10 9 11 10 8 10 11 12 9 9 11 10 9 9 11 13 12 7 4 6 4 3 4 3 3 6 10 12 12 11 10 10 10 10 11
8 7 7 6 9 9 11 13 12 12 10 12 13 12 12 12 12 12 12 7 6 6 9 4 2 5 3 3 6 10 11 10 9 9 10 10 10 11
7 8 8 8 9 10 11 11 10 11 10 9 11 12 13 12 10 10 11 11 9 5 3 4 1 2 2 1 3 6 8 9 9 10 11 11 11 11
6 7 8 9 9 11 13 13 14 11 15 18 17 17 16 15 11 11 10 12 8 3 2 4 2 3 1 2 3 5 7 9 10 9 9 11 11 9
6 7 11 10 11 13 14 13 14 12 15 16 13 13 13 10 8 5 9 11 9 6 3 4 3 3 3 2 3 4 5 5 6 8 9 10 11 8
5 6 6 11 11 11 11 13 13 14 14 13 10 8 7 7 6 6 5 9 8 3 6 4 4 4 0 2 2 5 6 5 6 7 8 10 11 11
7 6 5 10 12 11 9 14 17 13 9 9 8 7 8 7 6 7 6 6 4 3 10 6 4 5 4 3 3 3 6 7 7 8 7 7 9 12
6 10 12 11 13 12 12 15 12 9 9 9 9 7 6 6 7 6 4 4 4 5 8 3 4 6 4 3 3 4 4 7 9 9 8 9 9 8
11 8 9 10 9 9 7 6 7 7 8 8 8 6 6 6 6 5 4 5 4 2 4 4 4 6 4 6 4 3 6 4 5 9 10 8 8 10
9 5 6 6 5 6 5 6 6 7 7 6 8 8 7 7 6 5 4 5 4 4 5 4 3 4 4 3 5 7 7 6 6 5 7 9 10 10
5 6 5 6 6 6 7 6 5 6 6 7 7 8 8 8 7 4 3 5 6 6 5 4 4 2 2 7 12 9 7 7 6 7 6 6 9 9
5 5 5 6 6 7 6 7 7 6 7 8 8 8 7 6 5 6 6 5 6 5 4 3 4 5 5 8 2 10 8 6 4 5 7 8 5 4
6 7 6 6 7 7 8 8 6 6 7 7 7 8 8 8 7 6 7 7 7 6 6 5 6 8 8 7 3 2 7 7 5 6 5 2 1 3
6 7 6 7 6 6 7 8 8 8 8 8 8 8 8 8 8 8 8 8 7 7 9 10 10 10 4 1 4 6 4 7 8 7 5 5 4 3
8 8 8 8 8 9 8 8 8 7 8 9 9 9 8 9 10 10 9 9 9 10 10 8 3 6 6 8 11 10 3 4 4 11 6 5 7 7
8 9 9 9 9 9 9 10 10 9 9 9 9 9 9 9 10 10 10 10 10 9 10 8 4 4 7 8 9 8 6 5 4 5 5 2 6 8
Wind_Direction
214 211 215 207 195 179 166 158 147 155 167 214 103 101 151 145 123 128 143 147 138 134 136 129 130 134 135 134 130 141 142 133 134 145 166 169 133 129
219 210 206 193 186 180 182 170 158 136 135 143 117 92 111 102 129 129 140 130 121 116 129 123 118 113 119 128 135 133 126 127 134 139 121 119 123 124
222 215 215 182 180 182 180 166 174 136 120 95 82 101 73 94 90 97 113 117 121 122 124 120 123 125 121 119 119 128 129 125 123 118 121 123 125 127
221 212 221 163 170 177 166 168 171 133 133 121 69 82 84 100 98 97 96 107 117 118 117 114 108 102 102 113 120 120 116 113 121 124 123 127 128 132
216 198 180 148 156 148 139 137 133 129 130 120 113 94 85 108 97 97 102 97 99 93 93 101 99 100 115 118 111 113 117 122 119 123 123 123 127 132
194 193 164 158 163 145 138 136 131 120 116 114 116 111 107 114 110 118 105 104 107 106 89 88 105 99 88 98 110 114 127 126 117 118 125 133 131 123
62 116 139 153 147 142 143 142 139 130 128 128 125 121 121 131 125 121 113 113 94 109 109 96 103 86 73 100 127 129 120 119 128 143 141 128 121 120
90 85 104 112 110 110 110 115 146 140 138 132 137 137 134 126 130 128 126 133 128 112 106 74 85 89 86 92 104 122 127 141 148 139 129 125 133 139
109 107 98 103 113 111 98 94 87 112 120 138 138 141 132 138 136 128 126 120 112 121 116 87 65 94 35 64 123 142 146 146 136 135 140 150 153 158
108 121 124 120 126 121 116 103 99 116 127 127 125 130 127 124 123 121 119 108 94 84 99 97 75 97 105 100 165 150 152 150 151 155 165 167 167 173
108 108 112 118 123 111 111 107 98 86 76 85 91 97 97 102 122 122 129 129 122 122 71 114 130 98 148 170 167 177 158 167 174 172 175 178 183 171
83 96 99 120 118 114 114 115 111 109 109 105 101 93 108 109 86 119 145 137 131 134 163 107 146 163 180 182 182 184 189 189 189 195 194 190 182 194
101 103 111 115 107 104 116 125 118 115 111 109 108 113 122 127 124 127 131 146 143 113 154 124 159 166 189 132 186 200 199 194 208 217 216 213 193 205
113 110 101 108 103 99 108 121 113 108 114 119 124 139 149 150 144 142 135 144 84 41 164 145 147 174 160 166 192 180 207 218 219 220 217 217 205 209
112 108 106 96 97 90 123 120 113 127 133 141 151 159 166 142 126 117 121 97 62 56 151 157 145 164 187 193 165 193 183 218 218 225 222 218 210 208
104 106 101 90 86 114 124 107 125 137 148 151 155 145 130 146 155 153 156 179 207 175 156 187 164 168 203 227 216 199 209 233 194 219 228 230 221 222
114 118 120 117 121 129 118 124 131 136 143 146 152 157 165 171 165 171 159 175 200 183 188 186 191 225 242 231 235 234 229 232 226 208 207 235 230 225
126 135 130 130 137 151 157 154 158 150 150 155 163 169 172 176 179 171 172 188 204 212 214 183 177 189 243 230 222 245 236 245 232 206 212 235 247 219
137 137 136 140 145 163 171 180 179 177 163 174 177 183 178 182 176 200 201 202 217 226 223 174 186 209 236 259 147 227 242 233 214 213 218 215 250 206
157 161 162 164 170 177 179 192 183 175 187 182 186 189 191 195 197 214 213 221 228 229 229 209 215 211 219 245 262 180 211 234 214 227 203 166 309 23
178 185 182 180 184 186 193 203 199 196 197 196 201 203 205 207 218 224 231 227 226 234 244 238 234 205 211 115 261 246 211 221 235 213 166 180 187 179
186 189 187 189 191 195 200 206 208 199 200 205 209 211 213 216 228 231 233 238 228 239 245 259 156 165 190 208 240 249 217 198 220 224 224 191 169 208
197 197 195 194 195 195 196 201 207 211 212 213 213 214 214 218 223 230 234 235 242 242 242 244 211 198 230 227 234 245 235 215 195 198 212 110 59 43